STARLINK-32623 (62152 NORAD) Tracking and Keplerian Element Data

This shows tracking and keplerian element data for the satellite.

Feedback or suggestion? Click here.




ElementValue
Catalog62152
NameSTARLINK-32623
Epoch Orbit1135
Epoch Day35.02570518
Epoch Year2025
RAAN256.9763
Inclination43.0011
Eccentricity0.0001519
Argument of Perigee272.9101
Mean Anonmoly87.1579
Mean Motion15.32083351
Decay Rate2.255E-05
L11 62152U 24224P 25035.02570518 .00002255 00000+0 79965-4 0 9996
L22 62152 43.0011 256.9763 0001519 272.9101 87.1579 15.32083351 11351



Live tracking and technical data element details for STARLINK-32623 (NORAD 62152). STARLINK-32623 can be tracked NOW for your location showing map with azimuth and elevation plus other details from your city location.







IsCatalogInMostPopularTable: catalog: 62152, numindb: 46
Update: records affected: 1



GetName: 62152 STARLINK-32623

Hit Count: updated at: Sun, 18 May 2025 23:51:07 GMT